Location: Newark
(7.0858°N, 171.3717°E)
Time: 10:54:01
(UTC+00:00)

A-11 Canister half - Pass Details

Date: 05 December 2020
Orbit: 1517 x 1683 km, 47.2° (Epoch: 19 January)

Event Time Altitude Azimuth Distance (km) Brightness Sun altitude
Rises 08:57:12 0° 288° (WNW) 4,915 12.2 -37.7°
Reaches altitude 10° 09:01:45 10° 271° (W) 3,909 11.7 -38.7°
Maximum altitude 09:08:00 18° 231° (SW) 3,254 11.2 -40.2°
Drops below altitude 10° 09:14:11 10° 191° (S) 3,837 11.4 -41.6°
Sets 09:18:40 0° 173° (S) 4,791 11.8 -42.6°
